TimeEST,TemperatureF,Dew PointF,Humidity,Sea Level PressureIn,VisibilityMPH,Wind Direction,Wind SpeedMPH,Gust SpeedMPH,PrecipitationIn,Events,Conditions,WindDirDegrees,DateUTC
12:00 AM,44,39,75,29.90,16,NNW,8.1,,,,Partly Cloudy,340,2013-08-06 14:00:00
12:00 AM,44.6,39.2,81,29.89,-9999.0,NNW,8.1,-,N/A,,Clear,340,2013-08-06 14:00:00
12:30 AM,44.6,39.2,81,29.89,-9999.0,NW,8.1,-,N/A,,Clear,320,2013-08-06 14:30:00
1:00 AM,43,38,77,29.88,,North,9.2,,,,,350,2013-08-06 15:00:00
1:00 AM,42.8,37.4,81,29.86,-9999.0,North,9.2,-,N/A,,Clear,350,2013-08-06 15:00:00
1:30 AM,42.8,37.4,81,29.86,-9999.0,North,9.2,-,N/A,,Clear,350,2013-08-06 15:30:00
2:00 AM,41.0,37.4,87,29.86,-9999.0,North,11.5,-,N/A,,Clear,360,2013-08-06 16:00:00
2:30 AM,42.8,37.4,81,29.86,-9999.0,North,10.4,-,N/A,,Clear,350,2013-08-06 16:30:00
3:00 AM,43,37,74,29.87,16,North,12.7,,,,Partly Cloudy,0,2013-08-06 17:00:00
3:00 AM,42.8,37.4,81,29.86,-9999.0,North,12.7,-,N/A,,Clear,350,2013-08-06 17:00:00
3:30 AM,44.6,37.4,76,29.86,-9999.0,North,12.7,-,N/A,,Clear,350,2013-08-06 17:30:00
4:00 AM,44,38,72,29.86,,North,11.5,,,,,350,2013-08-06 18:00:00
4:00 AM,44.6,37.4,76,29.86,-9999.0,North,11.5,-,N/A,,Clear,350,2013-08-06 18:00:00
4:30 AM,44.6,37.4,76,29.83,-9999.0,North,11.5,-,N/A,,Clear,350,2013-08-06 18:30:00
5:00 AM,44.6,37.4,76,29.83,-9999.0,North,11.5,-,N/A,,Clear,350,2013-08-06 19:00:00
5:30 AM,46.4,37.4,71,29.83,-9999.0,NNW,11.5,-,N/A,,Clear,340,2013-08-06 19:30:00
6:00 AM,44,37,70,29.86,16,North,11.5,,,,Partly Cloudy,350,2013-08-06 20:00:00
6:00 AM,44.6,37.4,76,29.83,-9999.0,North,11.5,-,N/A,,Clear,350,2013-08-06 20:00:00
6:30 AM,42.8,37.4,81,29.83,-9999.0,North,13.8,-,N/A,,Clear,360,2013-08-06 20:30:00
7:00 AM,42,38,79,29.86,,North,15.0,,,,,0,2013-08-06 21:00:00
7:00 AM,42.8,37.4,81,29.83,-9999.0,North,15.0,-,N/A,,Clear,360,2013-08-06 21:00:00
7:30 AM,44.6,37.4,76,29.86,-9999.0,North,15.0,-,N/A,,Clear,350,2013-08-06 21:30:00
8:00 AM,42.8,37.4,81,29.86,-9999.0,North,15.0,-,N/A,,Clear,350,2013-08-06 22:00:00
8:30 AM,44.6,39.2,81,29.86,-9999.0,North,15.0,-,N/A,,Clear,360,2013-08-06 22:30:00
9:00 AM,49,39,59,29.87,16,North,15.0,,,,Haze,0,2013-08-06 23:00:00
9:00 AM,48.2,39.2,71,29.86,-9999.0,North,15.0,-,N/A,,Clear,350,2013-08-06 23:00:00
9:30 AM,50.0,41.0,71,29.86,-9999.0,North,13.8,-,N/A,,Clear,360,2013-08-06 23:30:00
10:00 AM,51,41,59,29.87,,North,15.0,,,,,0,2013-08-07 00:00:00
10:00 AM,51.8,41.0,67,29.86,-9999.0,North,15.0,-,N/A,,Clear,360,2013-08-07 00:00:00
10:30 AM,51.8,41.0,67,29.86,-9999.0,North,12.7,-,N/A,,Clear,10,2013-08-07 00:30:00
11:00 AM,53,41,54,29.85,,North,15.0,,,,,10,2013-08-07 01:00:00
11:00 AM,53.6,41.0,62,29.83,6.2,North,15.0,-,N/A,,Mostly Cloudy,10,2013-08-07 01:00:00
11:30 AM,53.6,41.0,62,29.83,-9999.0,North,15.0,-,N/A,,Clear,10,2013-08-07 01:30:00
12:00 PM,53,42,57,29.84,16,North,15.0,,,,Haze,10,2013-08-07 02:00:00
12:00 PM,53.6,42.8,67,29.83,-9999.0,North,15.0,-,N/A,,Clear,10,2013-08-07 02:00:00
12:30 PM,53.6,41.0,62,29.80,-9999.0,North,16.1,-,N/A,,Clear,10,2013-08-07 02:30:00
1:00 PM,53,41,53,29.81,,North,13.8,,,,,0,2013-08-07 03:00:00
1:00 PM,53.6,41.0,62,29.80,6.2,North,13.8,-,N/A,,Mostly Cloudy,360,2013-08-07 03:00:00
1:30 PM,55.4,41.0,58,29.77,6.2,North,16.1,-,N/A,,Mostly Cloudy,360,2013-08-07 03:30:00
2:00 PM,54,41,51,29.78,,North,13.8,,,,,10,2013-08-07 04:00:00
2:00 PM,53.6,41.0,62,29.77,6.2,North,13.8,-,N/A,,Mostly Cloudy,10,2013-08-07 04:00:00
2:30 PM,53.6,41.0,62,29.74,6.2,North,15.0,-,N/A,,Mostly Cloudy,10,2013-08-07 04:30:00
3:00 PM,53,41,54,29.77,16,North,15.0,,,,Partly Cloudy,0,2013-08-07 05:00:00
3:00 PM,53.6,41.0,62,29.74,6.2,North,15.0,-,N/A,,Mostly Cloudy,360,2013-08-07 05:00:00
3:30 PM,51.8,42.8,71,29.74,6.2,North,13.8,-,N/A,Rain,Light Rain,360,2013-08-07 05:30:00
4:00 PM,49,45,82,29.78,,North,10.4,,,,,350,2013-08-07 06:00:00
4:00 PM,50.0,44.6,82,29.77,5.0,North,10.4,-,N/A,Rain,Light Rain,350,2013-08-07 06:00:00
4:21 PM,48.2,46.4,93,29.77,3.7,NNW,10.4,-,N/A,Rain,Light Rain,340,2013-08-07 06:21:00
4:30 PM,48.2,44.6,87,29.77,3.1,WNW,10.4,-,N/A,Rain,Rain,290,2013-08-07 06:30:00
5:00 PM,47,45,89,29.81,,WSW,11.5,,,,,240,2013-08-07 07:00:00
5:00 PM,46.4,44.6,93,29.80,3.1,WSW,11.5,-,N/A,Rain,Rain,240,2013-08-07 07:00:00
5:30 PM,46.4,42.8,87,29.83,3.7,WSW,17.3,-,N/A,Rain,Light Rain,240,2013-08-07 07:30:00
6:00 PM,44,41,86,29.84,6,West,16.1,,,Rain,Light Rain,260,2013-08-07 08:00:00
6:00 PM,44.6,41.0,87,29.83,5.6,West,16.1,-,N/A,Rain,Light Rain,260,2013-08-07 08:00:00
6:30 PM,44.6,41.0,87,29.83,6.2,NW,9.2,-,N/A,Rain,Light Rain,320,2013-08-07 08:30:00
7:00 PM,44,42,88,29.85,,West,9.2,,,,,280,2013-08-07 09:00:00
7:00 PM,44.6,41.0,87,29.83,6.2,West,9.2,-,N/A,Rain,Light Rain,280,2013-08-07 09:00:00
7:30 PM,44.6,41.0,87,29.83,6.2,West,10.4,-,N/A,,Mostly Cloudy,260,2013-08-07 09:30:00
8:00 PM,45,42,83,29.85,,WSW,11.5,,,,,250,2013-08-07 10:00:00
8:00 PM,44.6,41.0,87,29.83,6.2,WSW,11.5,-,N/A,Rain,Light Rain,250,2013-08-07 10:00:00
8:30 PM,44.6,42.8,93,29.83,6.2,SW,10.4,-,N/A,,Mostly Cloudy,230,2013-08-07 10:30:00
9:00 PM,45,43,89,29.87,12,WSW,10.4,,,,Overcast,240,2013-08-07 11:00:00
9:00 PM,44.6,42.8,93,29.86,6.2,WSW,10.4,-,N/A,,Mostly Cloudy,240,2013-08-07 11:00:00
10:00 PM,45,42,86,29.88,,WSW,9.2,,,,,240,2013-08-07 12:00:00
10:00 PM,44.6,42.8,93,29.86,6.2,WSW,9.2,-,N/A,,Mostly Cloudy,240,2013-08-07 12:00:00
10:30 PM,44.6,42.8,93,29.86,6.2,WSW,11.5,-,N/A,,Mostly Cloudy,240,2013-08-07 12:30:00
11:00 PM,44,42,91,29.88,,WSW,11.5,,,,,240,2013-08-07 13:00:00
11:00 PM,44.6,42.8,93,29.86,6.2,WSW,11.5,-,N/A,,Mostly Cloudy,240,2013-08-07 13:00:00
11:30 PM,44.6,42.8,93,29.86,6.2,WSW,15.0,-,N/A,,Mostly Cloudy,240,2013-08-07 13:30:00